Weather Roundup
Issued by NWS Chicago, IL

Home | Current Version | Previous Version | Graphics & Text | Print | Product List | Glossary Off
Versions: 1 2 3 4 5 6 7 8 9 10 11 12 13 14 15 16 17 18 19 20 21 22 23 24 25 26 27 28 29 30 31 32 33 34 35 36 37 38 39 40 41 42 43 44 45 46 47 48 49 50

000
NZUS59 KLOT 060008
HRRLOT

CHICAGO AREA WEATHER ROUNDUP
NATIONAL WEATHER SERVICE CHICAGO/ROMEOVILLE IL
700 PM CDT THU MAY 05 2016

NOTE: "FAIR" INDICATES FEW OR NO CLOUDS BELOW 12,000 FEET WITH NO
SIGNIFICANT WEATHER AND/OR OBSTRUCTIONS TO VISIBILITY.

* THESE STATIONS ARE NOT UNDER NWS QUALITY CONTROL. THEY ALSO MAY NOT
  REPORT WEATHER SUCH AS PRECIPITATION OR FOG.

ILZ005-006-012>014-019>023-060100-
NORTHEAST ILLINOIS

CITY           SKY/WX    TMP DP  RH WIND       PRES   REMARKS
OHARE          PTCLDY    57  38  48 E6        29.96F
6HR MIN TEMP:  57; 6HR MAX TEMP:  61;

MIDWAY         PTCLDY    56  37  49 E7        29.97F
6HR MIN TEMP:  56; 6HR MAX TEMP:  61;

AURORA         CLEAR     64  41  42 NW9       29.97S
6HR MIN TEMP:  60; 6HR MAX TEMP:  66;

LANSING*       CLEAR     53  40  61 E6        29.98F
JOLIET*        MOCLDY    65  42  42 NW8       29.96S
WAUKEGAN       CLEAR     50  38  63 E3        29.97S
6HR MIN TEMP:  50; 6HR MAX TEMP:  58;

DUPAGE AIRPORT CLEAR     63  38  39 NW10      29.96S
6HR MIN TEMP:  60; 6HR MAX TEMP:  67;

WHEELING       CLEAR     54  37  52 E5        29.98F
6HR MIN TEMP:  54; 6HR MAX TEMP:  59;

KANKAKEE*      CLEAR     60  42  51 NE8       29.97S
MORRIS*        PTCLDY    64  41  41 NW6       29.96S
LEWIS AIRPORT* PTCLDY    59  42  54 E6        29.97R
$$

WIZ051-052-058>065-066-070>072-060100-
SOUTHEAST WISCONSIN

CITY           SKY/WX    TMP DP  RH WIND       PRES   REMARKS
MILWAUKEE      MOCLDY    51  37  58 E3        29.98S
6HR MIN TEMP:  51; 6HR MAX TEMP:  55;

KENOSHA*       CLEAR     52  38  58 E6        29.97F
RACINE*        CLEAR     51  36  56 SE3       29.98F
BURLINGTON     CLEAR     63  33  32 NW8       29.96S
WAUKESHA       CLEAR     61  34  36 NW8       29.97S
WEST BEND      CLEAR     55  39  54 SE8       29.96R
$$

INZ001>003-010>013-019-020-060100-
NORTHWEST INDIANA

CITY           SKY/WX    TMP DP  RH WIND       PRES   REMARKS
GARY*          CLEAR     52  46  82 NE7       29.98F
MICHIGAN CITY* NOT AVBL
RENSSELAER*    NOT AVBL
VALPARAISO     CLEAR     52  41  66 N7        29.97F
$$

LMZ740>746-060100-
SOUTHERN LAKE MICHIGAN

STATION/POSITION TIME  SKY/WX   TEMP WIND        PRES    VSBY
                                AIR  DIR/SP/G
                 (UTC)          (F)  (DEG/KT/KT) (MB)    (MI)
HARRISON CRIB    2300            47  350/  2/  2   N/A
BURNHAM HARBOR   0000            47   80/  2/  5   N/A
CALUMET HARBOR   2300                            1014.9F
BURNS HARBOR     2319            48   70/  7/  8 1015.9F
MICHIGAN CITY    2300            48  340/  4/  5   N/A
$$

ABBREVIATIONS USED IN REMARKS
   TC - TEMPERATURE IN CELSIUS
  WCI - WIND CHILL INDEX
   HX - HEAT INDEX
  VSB - VISIBILITY
$$



USA.gov is the U.S. government's official web portal to all federal, state and local government web resources and services.